Location: Heiligenberg
(48.5381°N, 7.3897°E)
Time: 20:52:04
(UTC+00:00)

Cosmos 1455 - Pass Details

Date: 26 May 2022
Orbit: 492 x 514 km, 82.5° (Epoch: 03 July)

Event Time Altitude Azimuth Distance (km) Brightness Sun altitude
Rises 00:46:24 0° 359° (N) 2,589 7.1 -18.2°
Reaches altitude 10° 00:48:42 10° 10° (N) 1,700 6.1 -18.0°
Maximum altitude 00:52:01 30° 73° (ENE) 913 3.8 -17.8°
Enters shadow 00:54:48 13° 132° (SE) 1,511 4.3 -17.7°
